TEVEL2-5

Last updated on Sun Aug 09 2026 00:03:16 GMT+0000 (Coordinated Universal Time)

1 63214U 25052E 26220.21276062 .00008877 00000+0 25423-3 0 9996 2 63214 97.3825 116.6687 0000481 8.0601 352.0651 15.36163285 78091
UTC large
Height (km)
Speed (km/s)
/
Latitude / Longitude
Inclination (degrees)
Orbital Period (minutes)
Azimuth
Elevation
Range (km)
Doppler Factor

Next 0 passes for location: London (51.5072 / 0.1276)

No passes found over London.
TEVEL2-5